Quillayute, WA
on Friday, February 22, 2013

Friday
Previous Day Next Day
Daily Summary
 ActualAverageRecord
Temperature
Mean Temperature °F 42°F  
Max Temperature 49°F 50°F 61°F (1973)
Min Temperature 38°F 35°F 22°F (1993)
Degree Days
Heating Degree Days 21 23  
Month to date heating degree days 460 506  
Since 1 July heating degree days 3568 3711  
Cooling Degree Days 0 0  
Month to date cooling degree days 0 0  
Year to date cooling degree days 0 0  
Moisture
Dew Point 39°F   
Average Humidity 79    
Maximum Humidity 93    
Minimum Humidity 65    
Precipitation
Precipitation 2.50 in 0.35 in 2.50 in (2013)
Month to date precipitation 6.91 8.17  
Year to date precipitation 17.25 22.78  
Wind
Wind Speed 11 mph   
Max Wind Speed 23 mph   
Max Gust Speed 33 mph   
Visibility 2 miles   
Events Fog , Rain   

Key: T is trace of precipitation, MM is missing value
Source: NWS Daily Summary
Time(PST)TemperatureDew PointHumidity Pressure Visibility Wind DirectionWind SpeedGust SpeedPrecipitationEvents Conditions
12:11 AM 44.6°F 39.2°F 81% 30.03 in 2.0 miles SSW 12.7 mph 19.6 mph 0.04 in Rain Light Rain
12:33 AM 42.8°F 37.4°F 81% 30.02 in 1.8 miles South 8.1 mph 16.1 mph 0.06 in Rain Light Rain
12:53 AM 43.0°F 37.9°F 82% 30.03 in 2.5 miles South 4.6 mph - 0.07 in Rain Light Rain
1:24 AM 42.8°F 37.4°F 81% 30.00 in 1.8 miles SSE 5.8 mph - 0.02 in Rain Light Rain
1:37 AM 42.8°F 39.2°F 87% 30.00 in 1.5 miles Variable 5.8 mph - 0.04 in Rain Light Rain
1:53 AM 43.0°F 39.0°F 86% 30.00 in 1.2 miles SSE 6.9 mph - 0.05 in Rain Light Rain
2:06 AM 44.6°F 39.2°F 81% 29.98 in 1.5 miles South 5.8 mph - 0.02 in Rain Light Rain
2:24 AM 44.6°F 39.2°F 81% 29.97 in 1.2 miles South 6.9 mph - 0.05 in Rain Light Rain
2:34 AM 44.6°F 39.2°F 81% 29.95 in 1.8 miles SSE 6.9 mph - 0.06 in Rain Light Rain
2:53 AM 44.1°F 39.9°F 85% 29.93 in 1.8 miles South 5.8 mph 17.3 mph 0.07 in Rain Light Rain
3:06 AM 44.6°F 39.2°F 81% 29.93 in 1.5 miles SSE 10.4 mph 17.3 mph 0.01 in Rain Light Rain
3:08 AM 44.6°F 39.2°F 81% 29.93 in 1.2 miles South 9.2 mph 17.3 mph 0.01 in Rain Light Rain
3:37 AM 44.6°F 41.0°F 87% 29.91 in 0.8 miles Variable 6.9 mph 19.6 mph 0.03 in Rain Light Rain
3:53 AM 44.1°F 41.0°F 89% 29.89 in 0.8 miles SSE 8.1 mph - 0.07 in Rain Rain
4:10 AM 44.6°F 41.0°F 87% 29.87 in 1.0 miles SSE 9.2 mph 18.4 mph 0.04 in Rain Light Rain
4:53 AM 45.0°F 41.0°F 86% 29.84 in 1.2 miles South 10.4 mph 23.0 mph 0.15 in Rain Rain
5:25 AM 46.4°F 42.8°F 87% 29.81 in 1.5 miles South 16.1 mph 24.2 mph 0.12 in Rain Rain
5:53 AM 46.9°F 43.0°F 86% 29.80 in 1.5 miles SSW 15.0 mph 28.8 mph 0.22 in Rain Rain
6:18 AM 46.4°F 42.8°F 87% 29.81 in 1.2 miles South 13.8 mph 26.5 mph 0.12 in Rain Heavy Rain
6:32 AM 46.4°F 42.8°F 87% 29.80 in 1.2 miles South 15.0 mph 26.5 mph 0.21 in Rain Rain
6:46 AM 46.4°F 42.8°F 87% 29.80 in 1.2 miles South 15.0 mph 29.9 mph 0.29 in Rain Rain
6:53 AM 46.9°F 43.0°F 86% 29.80 in 1.2 miles South 11.5 mph 27.6 mph 0.33 in Rain Rain
7:53 AM 46.9°F 44.1°F 90% 29.75 in 1.0 miles South 13.8 mph 31.1 mph 0.36 in Rain Rain
8:49 AM 46.4°F 42.8°F 87% 29.71 in 0.8 miles South 13.8 mph 25.3 mph 0.36 in Rain Heavy Rain
8:53 AM 46.4°F 42.8°F 87% 29.72 in 0.5 miles South 12.7 mph 25.3 mph N/A Fog , Rain Heavy Rain
9:07 AM 46.4°F 44.6°F 93% 29.72 in - SSW 10.4 mph 24.2 mph 0.10 in Rain Heavy Rain
9:17 AM 46.4°F 44.6°F 93% 29.72 in 0.5 miles South 10.4 mph 20.7 mph 0.16 in Fog , Rain Rain
9:53 AM 48.0°F 45.0°F 89% 29.71 in 0.8 miles SW 12.7 mph 19.6 mph 0.38 in Rain Heavy Rain
10:19 AM 48.2°F 44.6°F 87% 29.71 in 1.0 miles West 11.5 mph 23.0 mph 0.11 in Rain Rain
10:28 AM 46.4°F 42.8°F 87% 29.71 in 1.0 miles West 8.1 mph 20.7 mph 0.13 in Rain Rain
10:40 AM 46.4°F 42.8°F 87% 29.71 in 0.8 miles West 6.9 mph - 0.16 in Rain Rain
10:51 AM 46.4°F 42.8°F 87% 29.71 in 1.2 miles West 8.1 mph - 0.18 in Rain Light Rain
10:53 AM 46.9°F 43.0°F 86% 29.71 in 1.8 miles West 8.1 mph - 0.18 in Rain Light Rain
10:56 AM 46.4°F 42.8°F 87% 29.71 in 2.5 miles West 5.8 mph - 0.00 in Rain Light Rain
11:00 AM 46.4°F 42.8°F 87% 29.71 in 1.2 miles West 5.8 mph - 0.01 in Rain Light Rain
11:09 AM 46.4°F 42.8°F 87% 29.71 in 0.8 miles West 6.9 mph - 0.03 in Rain Light Rain
11:16 AM 46.4°F 42.8°F 87% 29.71 in 0.8 miles WSW 8.1 mph - 0.04 in Rain Light Rain
11:39 AM 48.2°F 42.8°F 82% 29.72 in 1.5 miles WSW 12.7 mph - 0.09 in Rain Light Rain
11:46 AM 48.2°F 42.8°F 82% 29.72 in 2.5 miles SW 10.4 mph 18.4 mph 0.09 in Rain Light Rain
11:53 AM 48.0°F 44.1°F 86% 29.72 in 2.5 miles WSW 11.5 mph - 0.09 in   Mostly Cloudy
12:53 PM 48.0°F 42.1°F 80% 29.73 in 2.5 miles WSW 15.0 mph - N/A   Haze
1:46 PM 46.4°F 37.4°F 71% 29.72 in 1.8 miles West 13.8 mph 23.0 mph 0.00 in Rain Light Rain
1:53 PM 46.9°F 39.0°F 74% 29.73 in 2.0 miles West 13.8 mph - 0.00 in Rain Light Rain
2:38 PM 46.4°F 37.4°F 71% 29.74 in 3.0 miles West 13.8 mph 20.7 mph 0.00 in   Haze
2:53 PM 46.0°F 37.0°F 71% 29.76 in 3.0 miles West 17.3 mph 27.6 mph 0.00 in   Haze
3:53 PM 44.1°F 34.0°F 68% 29.77 in 5.0 miles WSW 11.5 mph 23.0 mph N/A   Haze
4:34 PM 42.8°F 35.6°F 76% 29.78 in 1.8 miles WNW 15.0 mph 20.7 mph 0.00 in Rain Light Rain
4:43 PM 39.2°F 35.6°F 87% 29.78 in 1.0 miles West 11.5 mph 20.7 mph 0.03 in Rain Light Rain
4:50 PM 39.2°F 35.6°F 87% 29.79 in 2.0 miles West 10.4 mph - 0.03 in Rain Light Rain
4:53 PM 41.0°F 36.0°F 82% 29.79 in 3.0 miles West 8.1 mph - 0.03 in Rain Light Rain
5:30 PM 39.2°F 35.6°F 87% 29.78 in 3.0 miles Calm Calm - 0.00 in   Mostly Cloudy
5:35 PM 39.2°F 35.6°F 87% 29.79 in 1.8 miles SSW 3.5 mph - 0.00 in Rain Light Rain
5:38 PM 39.2°F 35.6°F 87% 29.79 in 0.8 miles Calm Calm - 0.02 in Rain Heavy Rain
5:46 PM 39.2°F 33.8°F 81% 29.80 in 1.0 miles WNW 15.0 mph 21.9 mph 0.06 in Rain Rain
5:50 PM 39.2°F 33.8°F 81% 29.79 in 2.0 miles West 15.0 mph 21.9 mph 0.08 in Rain Light Rain
5:53 PM 39.9°F 34.0°F 79% 29.80 in 2.5 miles WNW 12.7 mph 21.9 mph 0.08 in Rain Light Rain
6:00 PM 39.2°F 33.8°F 81% 29.79 in 5.0 miles West 9.2 mph 18.4 mph 0.00 in Rain Light Rain
6:53 PM 39.0°F 34.0°F 82% 29.81 in 4.0 miles West 3.5 mph - 0.00 in   Haze
7:11 PM 39.2°F 33.8°F 81% 29.81 in 2.0 miles West 15.0 mph 25.3 mph 0.02 in Rain Heavy Rain
7:25 PM 39.2°F 33.8°F 81% 29.81 in 4.0 miles WSW 6.9 mph - 0.03 in Rain Light Rain
7:53 PM 39.9°F 35.1°F 83% 29.83 in 4.0 miles West 9.2 mph 20.7 mph 0.03 in   Haze
8:53 PM 41.0°F 34.0°F 76% 29.86 in 4.0 miles West 13.8 mph 24.2 mph N/A   Haze
9:53 PM 43.0°F 35.1°F 74% 29.87 in 4.0 miles West 13.8 mph 19.6 mph N/A   Haze
10:53 PM 43.0°F 35.1°F 74% 29.89 in 4.0 miles WSW 15.0 mph - 0.00 in Rain Light Rain
11:14 PM 42.8°F 35.6°F 76% 29.90 in 3.0 miles WNW 10.4 mph 27.6 mph 0.01 in Rain Light Rain
11:53 PM 43.0°F 37.0°F 80% 29.91 in 6.0 miles West 8.1 mph - 0.01 in   Haze
Moon Phase
Feb. 22 Feb. 25 Mar. 04 Mar. 11 Mar. 19
Sunrise:07:11 AM (PST) Moon Rise:03:01 PM (PST)2/22
Sunset:05:52 PM (PST) Moon Set:05:09 AM (PST)2/22

Copyright © 2014 The Weather Underground, Inc.